Wind_Speed
2 2 2 2 2 2 2 2 3 2 2 2 2 2 1 1 2 2 2 2 2 3 3 3 3 4 4 5 5 5 5 5 5 6 5 5 5 5 4 4 3 2 2 2 2 3 4 4 5
3 3 3 3 3 3 3 3 3 3 3 2 2 2 2 1 1 2 2 3 3 4 4 4 4 4 5 5 6 6 6 6 6 6 6 6 6 6 5 4 4 4 3 4 4 5 5 5 5
4 4 3 3 3 4 4 4 4 4 4 3 3 2 2 2 2 3 3 4 4 5 5 5 5 5 5 6 6 6 6 6 6 6 6 6 6 5 5 6 6 6 5 5 5 6 6 6 6
5 5 5 4 4 5 5 5 5 4 4 3 3 3 3 3 3 4 4 5 5 6 6 5 6 6 6 6 6 6 7 7 7 6 7 7 7 7 7 6 7 7 7 8 7 7 7 7 8
6 6 6 5 5 5 6 6 5 5 5 4 4 4 4 4 5 5 6 6 7 7 7 7 7 7 7 7 6 6 6 6 6 6 7 7 7 7 9 9 7 7 7 7 7 8 8 8 8
6 6 6 5 5 6 6 6 6 5 5 5 5 5 5 5 6 6 6 7 8 8 8 8 8 8 8 7 7 7 7 7 7 6 6 6 7 7 8 7 5 5 6 6 6 7 8 7 8
7 6 6 6 6 6 6 6 6 6 6 6 6 6 7 7 7 7 7 8 8 9 9 9 9 9 8 8 8 7 7 7 6 6 6 6 6 6 6 5 4 5 5 6 6 7 6 7 7
7 7 6 6 7 7 7 7 7 7 7 7 7 8 7 8 8 8 8 9 9 9 9 9 9 9 9 8 8 8 7 6 6 5 5 6 6 6 6 5 5 5 5 5 6 6 7 6 7
8 8 7 7 7 7 8 8 7 8 7 8 8 9 8 8 8 9 9 9 9 9 9 9 9 9 8 8 8 7 7 6 6 5 5 6 6 6 5 5 5 5 6 6 6 6 7 6 7
8 8 8 8 8 8 8 8 8 8 8 8 9 8 8 9 9 9 9 9 9 9 8 8 8 8 8 8 8 7 7 7 7 6 6 6 6 6 6 5 6 6 6 6 6 7 7 7 7
9 9 9 9 9 9 9 9 8 8 9 8 8 8 8 9 9 9 9 9 9 9 8 8 8 7 7 7 8 8 8 8 8 8 8 8 7 7 7 7 7 7 7 7 7 7 7 8 8
10 10 9 9 10 10 10 10 9 9 9 9 9 8 9 9 9 8 8 8 8 8 9 9 9 7 7 7 8 8 8 8 9 9 9 9 8 9 8 8 9 8 8 7 7 8 8 8 8
11 11 11 10 10 11 11 11 10 10 10 10 9 8 9 9 9 8 8 8 8 8 8 8 8 8 8 7 7 8 8 8 9 9 9 9 9 9 9 9 9 9 9 8 8 8 8 8 8
11 12 12 12 12 12 12 12 11 10 10 10 9 9 8 9 8 8 8 8 8 9 8 8 7 8 7 7 8 8 8 9 8 8 8 9 9 10 10 9 9 9 9 9 9 9 9 9 9
11 11 12 12 13 13 13 12 11 11 11 10 10 10 10 9 9 9 9 8 8 8 8 7 7 7 8 8 8 9 9 9 9 9 9 10 10 10 10 10 9 9 9 9 10 9 10 10 10
12 12 12 12 12 12 13 12 12 12 11 11 11 10 10 10 9 9 9 9 8 8 8 8 8 8 9 9 9 9 9 9 10 10 10 10 11 11 11 11 10 10 10 10 11 11 11 10 10
12 12 12 12 13 13 13 13 12 12 12 12 11 11 10 10 9 9 9 9 9 9 8 8 9 9 9 10 11 11 10 10 10 11 11 11 11 11 10 11 11 11 11 11 11 11 11 11 11
12 13 13 13 13 13 13 13 13 13 13 13 12 11 11 10 9 10 10 10 9 9 9 9 9 9 10 10 10 10 10 10 11 11 11 10 10 10 10 11 11 12 12 12 12 12 12 12 12
12 13 13 13 13 13 13 13 12 13 13 13 13 12 11 11 10 11 10 10 10 10 10 10 9 9 10 10 10 11 11 11 12 12 12 11 11 11 11 12 12 12 12 12 13 13 13 13 12
12 12 12 12 12 13 13 13 13 13 13 13 13 13 12 12 12 11 11 11 11 11 11 10 9 10 10 11 11 11 12 12 13 13 13 13 13 12 12 12 13 13 13 13 13 13 14 13 13
13 12 12 12 13 13 14 14 13 13 13 13 14 14 13 12 12 12 12 12 11 11 11 10 10 10 11 11 12 12 12 13 13 13 13 13 14 14 13 13 14 13 13 13 13 13 13 13 14
13 13 13 13 13 13 14 14 13 13 13 13 14 14 13 13 13 13 12 12 12 12 12 12 11 12 12 12 12 12 13 13 14 14 14 14 14 14 14 14 15 15 14 14 14 14 14 15 15
13 13 13 13 14 14 14 14 12 12 13 13 13 13 13 13 13 13 13 12 12 13 13 13 13 13 13 13 13 13 13 13 14 14 14 14 15 15 15 15 16 16 15 15 15 16 16 16 16
14 14 14 14 15 15 14 15 13 13 13 13 12 12 13 13 13 13 14 13 13 13 14 14 14 14 14 13 13 13 13 13 14 14 14 14 15 16 16 15 15 16 16 16 16 16 16 16 17
14 14 15 15 15 15 15 15 14 13 13 13 13 12 13 13 13 13 14 14 14 14 15 15 15 15 15 14 14 14 14 14 14 14 14 15 16 16 16 16 15 15 16 16 16 17 17 18 18
14 15 15 15 15 15 15 14 13 13 12 12 13 12 13 13 13 13 14 15 15 14 14 15 15 16 15 15 15 15 15 14 14 15 15 15 16 16 16 16 15 15 16 17 17 17 18 18 18
15 15 16 16 16 15 15 13 13 13 13 13 13 13 13 13 14 14 14 14 15 16 16 15 16 16 17 16 16 16 16 16 16 16 16 16 16 16 16 17 17 17 17 18 18 18 18 19 19
16 16 16 17 17 16 15 13 13 14 14 14 14 14 14 14 14 14 14 15 15 16 17 17 17 16 16 17 17 17 17 16 16 17 17 17 17 17 17 18 18 18 18 18 18 19 19 19 19
16 17 17 17 17 16 15 14 14 15 15 16 16 16 16 15 15 14 15 16 16 16 17 17 17 17 18 18 18 18 18 17 17 17 18 18 18 18 19 19 19 19 19 19 20 20 21 21 21
17 18 18 18 18 18 18 15 15 15 16 16 17 17 17 16 16 16 16 16 16 17 18 18 17 18 19 19 19 19 19 19 19 19 19 19 19 19 19 20 20 21 20 20 21 21 22 21 21
Wind_Direction
191 196 198 201 203 211 215 225 223 218 214 221 222 219 221 222 245 256 273 288 297 304 305 308 311 316 318 321 324 332 334 332 327 329 330 332 331 329 331 323 315 305 283 259 238 214 207 213 218
214 220 230 227 231 244 245 247 237 236 230 237 243 251 258 272 271 270 274 284 291 298 298 303 311 316 313 313 316 319 323 324 324 319 317 318 320 316 309 298 290 287 268 254 246 231 226 223 225
234 240 245 246 252 253 254 255 236 236 234 237 250 263 270 274 269 275 282 281 284 291 294 301 307 310 311 311 313 313 314 317 316 314 313 312 314 308 300 289 275 263 257 254 247 236 231 232 234
240 250 254 254 256 254 255 254 245 249 242 239 251 264 272 277 277 279 283 281 282 287 288 295 301 304 303 304 308 310 311 314 311 309 309 306 306 302 302 292 277 266 259 252 248 243 238 234 235
242 252 259 259 252 251 251 249 242 247 241 245 253 259 272 276 278 278 282 284 284 285 286 289 292 295 292 292 297 303 310 313 310 305 304 305 306 307 304 300 286 271 262 258 252 249 245 240 240
245 250 255 254 249 246 248 248 247 249 249 254 259 263 272 278 282 283 282 282 281 280 281 283 285 287 287 285 288 292 296 302 306 301 296 300 309 313 315 310 292 274 270 266 258 258 248 243 246
248 251 252 250 249 249 250 249 251 252 256 259 263 267 272 275 278 281 281 282 281 280 282 285 284 282 283 282 283 285 289 292 297 303 295 301 309 315 319 317 298 284 281 272 264 262 258 252 253
249 249 253 255 255 252 251 252 252 255 255 258 261 268 271 274 277 281 283 284 283 281 282 285 286 284 282 280 280 283 285 286 288 299 307 308 308 314 314 314 305 294 288 277 272 266 266 262 260
250 250 255 259 260 255 255 257 256 255 256 260 264 268 271 275 276 276 282 285 286 286 286 287 288 286 283 278 275 273 274 275 279 287 302 310 309 313 310 305 293 284 284 282 278 271 263 264 264
247 250 255 258 259 259 258 259 257 258 261 265 268 268 271 273 275 276 279 282 283 285 287 290 286 284 282 276 271 267 266 269 275 282 289 299 305 304 303 295 290 288 287 283 274 271 267 265 264
247 252 256 258 259 259 258 258 259 260 263 266 268 272 273 273 276 278 279 282 284 284 284 284 285 285 280 278 272 267 269 272 272 278 280 287 295 297 296 291 289 290 285 280 272 269 270 267 266
253 256 256 257 259 259 257 257 259 262 263 264 267 271 273 273 275 279 281 284 285 288 287 283 279 278 278 276 270 265 266 270 273 278 278 284 289 287 288 286 288 285 281 279 275 271 268 268 267
256 258 258 257 259 259 256 255 257 258 260 262 266 271 273 272 270 277 280 281 285 288 288 286 274 275 275 272 269 269 267 267 269 274 275 279 281 283 285 284 279 283 279 277 275 272 271 271 271
256 256 257 259 260 259 257 256 256 256 257 258 265 267 265 268 271 276 280 281 284 285 286 282 272 273 274 270 268 268 266 266 273 278 284 281 279 284 283 281 280 280 278 276 273 273 275 275 274
255 254 255 258 259 258 258 255 253 251 252 256 260 260 262 265 275 277 275 277 282 285 283 281 276 274 273 271 270 269 272 273 275 279 283 280 279 283 285 281 277 278 280 281 277 277 279 279 278
258 258 258 258 258 257 256 256 254 252 253 256 260 261 263 267 270 272 272 276 280 280 278 276 278 274 271 269 270 271 272 274 276 277 280 282 281 282 282 279 273 274 277 278 276 275 277 279 280
260 261 259 257 256 257 256 256 254 253 254 258 261 262 260 263 265 268 273 275 277 278 276 275 276 278 278 276 276 276 275 276 277 276 279 281 280 279 280 278 273 272 274 276 276 275 276 277 276
262 263 262 258 257 257 256 255 255 254 255 258 259 261 260 260 264 268 271 276 277 276 276 277 277 279 281 281 280 278 279 280 280 278 280 281 278 278 280 280 276 271 271 273 274 274 274 273 273
262 261 264 263 259 257 256 256 256 256 257 258 259 258 255 259 262 266 268 274 277 278 278 278 276 280 283 284 283 280 279 281 281 281 278 276 277 277 280 280 279 274 271 272 273 273 272 269 268
262 262 264 264 260 259 258 257 256 257 258 259 260 259 259 259 261 263 266 267 270 275 277 277 275 279 282 284 282 280 279 280 281 282 280 277 277 279 282 281 278 276 274 275 275 275 272 270 270
262 263 264 265 262 260 261 259 257 259 259 259 258 258 258 261 261 263 265 264 265 269 271 273 275 278 280 283 284 284 284 283 284 283 282 281 281 279 282 282 279 279 278 279 277 274 272 272 273
266 265 265 266 264 260 260 259 257 258 259 258 256 256 256 259 262 262 262 264 265 266 267 270 275 278 279 280 281 283 285 284 284 284 285 283 281 279 280 282 281 281 279 278 278 276 274 274 273
267 266 265 265 265 264 261 262 260 260 260 260 258 255 256 260 260 258 260 265 265 265 265 268 271 277 280 280 279 281 285 285 285 286 285 283 280 280 281 283 281 279 279 278 279 278 275 274 274
267 265 265 265 266 264 262 263 262 260 262 262 261 258 258 261 260 259 261 266 268 269 268 268 269 272 276 278 279 282 284 285 287 288 286 283 280 281 282 281 281 279 279 279 278 278 277 274 273
268 265 265 265 265 264 263 263 264 265 264 263 260 259 261 262 261 262 263 265 267 271 273 269 268 269 272 273 278 283 283 283 286 288 287 285 281 280 280 279 281 279 282 282 280 278 276 277 276
266 267 267 269 268 266 264 264 264 267 266 265 261 259 262 263 262 263 266 268 269 270 273 270 268 269 271 272 275 279 282 283 284 287 288 286 282 279 278 280 283 281 282 281 280 280 280 279 280
264 265 267 270 269 268 264 264 264 266 266 266 264 262 262 265 267 267 268 269 272 272 271 271 274 273 271 272 275 279 280 281 284 287 287 287 286 283 282 281 281 281 281 283 281 282 284 282 279
264 265 266 267 270 270 265 264 263 264 268 267 264 262 263 265 268 269 270 271 273 273 271 271 274 277 278 276 275 276 278 280 284 285 287 286 285 285 284 282 282 282 281 283 282 283 283 282 281
262 262 264 266 268 268 268 266 269 270 270 268 266 264 264 264 265 269 272 272 272 272 273 274 274 276 279 281 282 280 279 279 282 283 284 284 283 283 282 281 279 280 282 284 284 284 284 282 281
261 261 262 265 267 269 270 270 269 271 270 268 267 265 264 265 266 267 269 271 272 273 274 273 274 276 276 278 280 282 280 279 281 282 281 282 282 282 279 280 281 280 281 282 283 284 282 282 282
Height
5860 5860 5861 5863 5864 5864 5864 5864 5865 5865 5866 5866 5866 5867 5867 5868 5869 5871 5869 5868 5868 5868 5868 5868 5868 5868 5867 5867 5867 5867 5866 5865 5865 5865 5864 5863 5863 5862 5862 5861 5861 5861 5862 5863 5864 5865 5866 5867 5868
5860 5861 5862 5863 5863 5863 5864 5864 5865 5865 5866 5866 5866 5866 5867 5867 5867 5868 5867 5868 5868 5868 5868 5868 5867 5867 5867 5867 5866 5866 5865 5865 5864 5864 5863 5863 5862 5862 5861 5860 5860 5861 5861 5862 5863 5864 5865 5866 5867
5860 5861 5863 5862 5862 5863 5864 5864 5864 5864 5865 5865 5866 5866 5866 5867 5867 5867 5867 5867 5867 5867 5867 5867 5867 5866 5866 5866 5865 5865 5865 5864 5864 5863 5863 5862 5862 5861 5860 5858 5859 5859 5860 5861 5862 5863 5864 5865 5866
5860 5861 5862 5862 5862 5862 5863 5863 5863 5864 5864 5865 5865 5866 5866 5866 5866 5866 5866 5866 5866 5866 5866 5866 5865 5865 5865 5865 5864 5864 5863 5863 5863 5862 5862 5861 5860 5859 5858 5857 5856 5857 5858 5860 5861 5862 5863 5864 5865
5859 5860 5861 5861 5861 5862 5862 5862 5863 5863 5863 5864 5865 5865 5865 5865 5865 5865 5865 5865 5865 5865 5865 5864 5864 5864 5864 5863 5863 5862 5862 5862 5862 5861 5861 5860 5859 5858 5856 5853 5852 5854 5856 5858 5859 5860 5861 5862 5863
5859 5859 5860 5860 5860 5861 5861 5861 5862 5862 5862 5863 5864 5864 5864 5864 5864 5864 5864 5864 5864 5863 5863 5863 5862 5862 5862 5862 5861 5861 5861 5861 5860 5860 5859 5859 5858 5857 5854 5851 5850 5852 5855 5857 5858 5859 5860 5861 5861
5858 5858 5858 5859 5859 5860 5860 5860 5861 5861 5862 5862 5862 5863 5863 5863 5863 5863 5862 5862 5862 5861 5861 5861 5860 5860 5860 5860 5860 5859 5859 5859 5859 5858 5858 5858 5857 5856 5855 5853 5852 5853 5855 5856 5857 5858 5858 5859 5860
5856 5857 5857 5857 5858 5858 5859 5859 5859 5860 5860 5861 5861 5861 5861 5861 5861 5861 5860 5860 5860 5859 5859 5859 5858 5858 5858 5858 5857 5858 5857 5858 5858 5857 5857 5857 5856 5855 5855 5854 5854 5854 5855 5855 5856 5856 5857 5858 5859
5854 5856 5855 5856 5856 5857 5857 5858 5858 5858 5859 5859 5859 5860 5860 5860 5859 5859 5859 5858 5858 5858 5857 5856 5856 5856 5855 5855 5855 5855 5855 5856 5856 5856 5856 5856 5855 5855 5855 5854 5854 5854 5854 5854 5855 5855 5856 5856 5857
5853 5854 5854 5854 5855 5855 5855 5856 5856 5857 5857 5858 5858 5858 5858 5858 5858 5858 5857 5857 5856 5856 5855 5854 5853 5853 5852 5852 5852 5853 5853 5854 5854 5854 5855 5855 5854 5854 5854 5853 5853 5853 5853 5853 5854 5854 5854 5855 5855
5851 5852 5852 5852 5853 5853 5853 5854 5854 5855 5856 5856 5856 5856 5856 5856 5856 5856 5855 5855 5854 5854 5853 5852 5851 5851 5850 5850 5850 5851 5852 5852 5852 5852 5853 5853 5853 5853 5852 5852 5852 5852 5852 5852 5852 5853 5853 5853 5853
5849 5850 5850 5850 5850 5851 5851 5852 5852 5853 5854 5854 5854 5854 5854 5854 5853 5853 5853 5853 5853 5852 5851 5850 5849 5849 5848 5848 5848 5849 5850 5850 5850 5850 5851 5851 5851 5851 5851 5851 5850 5850 5850 5850 5851 5851 5851 5851 5851
5847 5847 5848 5848 5848 5849 5849 5850 5850 5851 5851 5851 5852 5852 5852 5852 5852 5852 5851 5851 5851 5850 5850 5848 5847 5847 5847 5847 5847 5847 5848 5848 5848 5848 5849 5849 5849 5849 5848 5849 5848 5848 5848 5849 5848 5849 5849 5849 5849
5844 5845 5845 5845 5846 5846 5847 5848 5848 5848 5848 5849 5850 5850 5850 5849 5849 5849 5850 5849 5849 5848 5848 5847 5845 5845 5845 5845 5845 5845 5846 5846 5846 5847 5847 5847 5847 5847 5846 5846 5846 5846 5846 5846 5846 5846 5847 5847 5847
5841 5842 5843 5843 5843 5844 5844 5845 5846 5846 5846 5847 5847 5848 5848 5848 5847 5847 5847 5847 5847 5846 5846 5845 5844 5843 5843 5843 5843 5843 5844 5844 5844 5845 5845 5844 5844 5844 5844 5844 5844 5844 5844 5844 5844 5844 5844 5844 5844
5839 5840 5840 5841 5841 5841 5843 5843 5843 5843 5844 5845 5845 5846 5846 5845 5845 5845 5845 5845 5844 5844 5844 5843 5842 5842 5841 5841 5841 5841 5842 5842 5842 5842 5842 5842 5842 5841 5841 5841 5841 5841 5841 5841 5842 5841 5841 5841 5841
5837 5837 5838 5838 5838 5838 5839 5840 5841 5841 5841 5842 5842 5843 5843 5843 5843 5843 5843 5842 5842 5842 5842 5841 5840 5840 5840 5840 5839 5839 5839 5840 5840 5840 5839 5839 5839 5838 5838 5838 5838 5838 5839 5839 5839 5839 5839 5839 5839
5835 5835 5835 5835 5835 5835 5836 5837 5837 5838 5838 5839 5839 5840 5840 5841 5841 5840 5840 5840 5840 5839 5839 5839 5838 5838 5838 5837 5837 5837 5837 5837 5837 5837 5836 5836 5836 5836 5835 5835 5835 5835 5835 5836 5836 5836 5836 5836 5836
5832 5832 5832 5833 5832 5833 5833 5834 5835 5835 5836 5836 5836 5837 5837 5838 5838 5837 5837 5837 5837 5837 5837 5836 5836 5836 5835 5835 5835 5835 5834 5834 5834 5834 5833 5833 5833 5833 5833 5833 5832 5832 5832 5832 5832 5832 5832 5832 5832
5829 5829 5829 5830 5829 5830 5830 5831 5832 5832 5833 5833 5833 5834 5834 5835 5835 5835 5835 5835 5835 5834 5834 5834 5834 5833 5833 5833 5832 5832 5832 5832 5831 5831 5830 5830 5830 5830 5830 5829 5829 5829 5829 5829 5828 5828 5828 5828 5829
5826 5827 5826 5827 5827 5827 5828 5828 5829 5829 5829 5830 5830 5830 5831 5831 5832 5832 5832 5832 5832 5832 5832 5831 5831 5831 5830 5830 5830 5829 5829 5829 5828 5828 5827 5827 5826 5826 5826 5826 5825 5825 5825 5825 5825 5824 5825 5825 5825
5823 5823 5823 5823 5823 5824 5825 5825 5826 5826 5826 5826 5827 5827 5827 5828 5828 5828 5829 5829 5829 5829 5829 5829 5828 5828 5828 5827 5827 5827 5826 5826 5825 5824 5824 5823 5823 5822 5822 5822 5821 5821 5821 5821 5821 5821 5821 5821 5821
5820 5820 5820 5820 5820 5821 5821 5822 5824 5823 5823 5823 5823 5823 5824 5824 5825 5825 5826 5826 5826 5826 5826 5826 5826 5825 5825 5824 5824 5823 5823 5822 5821 5821 5820 5819 5819 5819 5818 5818 5817 5817 5817 5817 5817 5817 5816 5817 5817
5817 5817 5817 5817 5817 5818 5818 5819 5820 5820 5820 5820 5820 5820 5821 5821 5821 5822 5822 5822 5822 5822 5822 5822 5822 5822 5822 5821 5821 5820 5819 5819 5818 5817 5816 5816 5815 5815 5814 5814 5813 5813 5813 5813 5813 5812 5812 5812 5812
5814 5814 5814 5813 5814 5815 5815 5815 5817 5817 5817 5817 5817 5818 5818 5818 5818 5818 5819 5819 5819 5819 5818 5819 5818 5818 5818 5818 5817 5817 5816 5815 5814 5813 5812 5812 5811 5811 5810 5810 5809 5809 5809 5808 5808 5808 5808 5807 5807
5811 5811 5811 5811 5810 5811 5811 5812 5814 5813 5813 5813 5814 5814 5815 5815 5815 5815 5815 5816 5815 5815 5815 5815 5815 5814 5814 5813 5813 5813 5812 5811 5810 5809 5809 5808 5807 5807 5806 5805 5805 5804 5804 5804 5803 5803 5803 5802 5802
5807 5807 5808 5807 5806 5807 5807 5809 5810 5809 5810 5810 5810 5810 5811 5811 5811 5811 5812 5812 5812 5811 5811 5811 5811 5810 5810 5809 5809 5809 5808 5807 5806 5806 5805 5804 5803 5802 5802 5801 5800 5800 5799 5799 5798 5798 5798 5797 5796
5804 5804 5804 5803 5803 5803 5804 5805 5807 5806 5806 5807 5807 5807 5807 5807 5807 5807 5807 5808 5807 5807 5807 5807 5806 5806 5805 5805 5804 5804 5803 5803 5802 5801 5800 5799 5798 5797 5797 5796 5796 5795 5794 5794 5793 5793 5792 5792 5791
5800 5800 5799 5799 5799 5800 5800 5804 5803 5802 5802 5803 5803 5802 5803 5803 5803 5803 5803 5803 5803 5803 5802 5802 5802 5801 5801 5800 5800 5799 5798 5798 5797 5796 5795 5794 5793 5792 5792 5791 5791 5790 5789 5789 5788 5787 5787 5786 5785
5795 5795 5796 5796 5796 5795 5796 5801 5798 5798 5798 5798 5798 5798 5798 5799 5799 5798 5798 5798 5798 5798 5798 5797 5797 5796 5796 5795 5795 5794 5794 5793 5792 5791 5790 5789 5788 5787 5786 5786 5785 5785 5784 5783 5782 5781 5781 5780 5779